Location: Appeville
(49.3218°N, 1.3427°W)
Time: 18:06:50
(UTC+00:00)

H-2A R/B - Pass Details

Date: 08 December 2019
Orbit: 501 x 541 km, 97.3° (Epoch: 19 January)

Event Time Altitude Azimuth Distance (km) Brightness Sun altitude
Rises 06:12:13 0° 17° (NNE) 2,617 6.3 -14.6°
Reaches altitude 10° 06:14:21 10° 22° (NNE) 1,731 5.4 -14.3°
Maximum altitude 06:17:59 52° 100° (E) 641 3.6 -13.7°
Drops below altitude 10° 06:21:39 10° 177° (S) 1,733 5.6 -13.2°
Sets 06:23:47 0° 183° (S) 2,621 6.5 -12.9°
